Tracking 27423 objects as of 8-Jun-2023
HD Live streaming from Space Station
objects crossing your sky now

KYOKKO 1 (EXOS A)

Track KYOKKO 1 (EXOS A) now!
10-day predictions
KYOKKO 1 (EXOS A) is classified as:


NORAD ID: 10664
Int'l Code: 1978-014A
Perigee: 643.5 km
Apogee: 3,952.5 km
Inclination: 65.4 °
Period: 133.9 minutes
Semi major axis: 8668 km
RCS: 1.0778 m2 (large)
Launch date: February 4, 1978
Source: Japan (JPN)
Launch site: KAGOSHIMA SPACE CENTER UNIVERSITY OF TOKYO (KSCUT)
Your satellite tracking list
Your tracking list is empty




NASA's NSSDC Master Catalog

Two Line Element Set (TLE):
1 10664U 78014A   23159.44783606  .00000021  00000-0  73820-4 0  9992
2 10664  65.3716 173.4677 1908501 282.8619  56.6811 10.75600599763939
Source of the keplerian elements: AFSPC